Weather History for Petersburg, WV

Change the Weather History Date:

Monday, February 3, 2014

  Actual Average (KEKN) Record (KEKN)
Temperature  
Mean Temperature 43 °F 30 °F  
Max Temperature 54 °F 40 °F 61 °F (1927)
Min Temperature 35 °F 20 °F -13 °F (1905)
Degree Days  
Heating Degree Days 22 35  
Month to date heating degree days 105  
Since 1 July heating degree days 3506  
Cooling Degree Days 0 0  
Month to date cooling degree days 0  
Year to date cooling degree days 0  
Moisture  
Dew Point 36 °F    
Average Humidity 89    
Maximum Humidity 95    
Minimum Humidity 60    
Precipitation  
Precipitation 0.95 in 0.10 in 1.89 in (1939)
Month to date precipitation 0.32  
Year to date precipitation 3.55  
Snow  
Snow 0.00 in - - ()
Month to date snowfall  
Since 1 September snowfall  
Snow Depth -    
Sea Level Pressure  
Sea Level Pressure 30.15 in    
Wind  
Wind Speed 1 mph (ENE)    
Max Wind Speed 5 mph    
Max Gust Speed -    
Visibility 5 miles    
Events Rain , Snow    
T = Trace of Precipitation, MM = Missing Value Source: NWS Daily Summary

Daily Weather History Graph

Daily Weather History Graph

Search for Another Location

Airport:

Trip Planner

Search our weather history database for the weather conditions in past years. The results will help you decide how hot, cold, wet, or windy it might be!

Date:

Astronomy

Feb. 03, 2014 Rise Set
Actual Time 7:21 AM EST 5:40 PM EST
Civil Twilight 6:53 AM EST 6:08 PM EST
Nautical Twilight 6:21 AM EST 6:40 PM EST
Astronomical Twilight 5:50 AM EST 7:11 PM EST
Moon 9:25 AM EST (2/3) 10:25 PM EST (2/3)
Length of Visible Light 11h 15m
Length of Day
10h 19m
Waxing Crescent, 19% of the Moon is Illuminated
Feb 3
Waxing Crescent
Feb 6
First Quarter
Feb 14
Full
Feb 22
Last Quarter
Mar 1
New

Hourly Weather History & Observations

Time (EST) Temp. Windchill Dew Point Humidity Pressure Visibility Wind Dir Wind Speed Gust Speed Precip Events Conditions
12:15 AM 40.6 °F - 36.1 °F 84% 30.09 in 4.0 mi Calm Calm - 0.01 in Rain Light Rain
12:35 AM 41.5 °F - 37.8 °F 86% 30.09 in 5.0 mi Calm Calm - 0.02 in Rain Rain
12:55 AM 41.2 °F - 37.8 °F 88% 30.09 in 3.0 mi Calm Calm - 0.05 in Rain Rain
1:15 AM 41.7 °F - 38.1 °F 87% 30.09 in 2.5 mi Calm Calm - 0.04 in Rain Rain
1:35 AM 41.9 °F - 38.3 °F 87% 30.08 in 2.0 mi Calm Calm - 0.09 in   Overcast
1:55 AM 41.4 °F - 38.3 °F 89% 30.08 in 2.0 mi Calm Calm - 0.14 in   Overcast
2:15 AM 41.4 °F - 38.3 °F 89% 30.07 in 2.5 mi Calm Calm - 0.03 in Rain Light Rain
2:35 AM 41.2 °F - 38.3 °F 89% 30.07 in 2.5 mi Calm Calm - 0.07 in Rain Rain
2:55 AM 41.0 °F - 37.8 °F 88% 30.06 in 2.5 mi Calm Calm - 0.11 in   Unknown
3:15 AM 40.3 °F - 37.8 °F 91% 30.07 in 2.5 mi Calm Calm - 0.03 in   Unknown
3:35 AM 39.4 °F - 37.4 °F 93% 30.08 in 1.8 mi Calm Calm - 0.06 in   Unknown
3:55 AM 38.5 °F - 36.3 °F 92% 30.06 in 3.0 mi Calm Calm - 0.09 in   Unknown
4:15 AM 37.8 °F 35.3 °F 35.4 °F 91% 30.06 in 3.0 mi West 3.5 mph - 0.01 in Snow Light Snow
4:35 AM 37.4 °F 34.9 °F 35.2 °F 92% 30.06 in 1.8 mi WSW 3.5 mph - 0.02 in Snow Light Snow
4:55 AM 36.5 °F - 34.3 °F 92% 30.07 in 1.8 mi Calm Calm - 0.02 in Snow Light Snow
5:15 AM 36.1 °F - 34.2 °F 93% 30.06 in 1.0 mi Calm Calm - N/A Snow Snow
5:35 AM 36.5 °F - 34.7 °F 93% 30.05 in 1.0 mi Calm Calm - N/A Snow Light Snow
5:55 AM 36.1 °F 33.5 °F 34.7 °F 94% 30.05 in 1.2 mi North 3.5 mph - N/A Snow Light Snow
6:15 AM 36.5 °F 33.9 °F 34.7 °F 93% 30.04 in 1.2 mi North 3.5 mph - N/A Snow Snow
6:35 AM 36.5 °F 32.7 °F 34.7 °F 93% 30.05 in 1.2 mi NNW 4.6 mph - N/A Snow Snow
6:55 AM 36.5 °F 33.9 °F 34.7 °F 93% 30.05 in 1.5 mi NNW 3.5 mph - N/A Snow Light Snow
7:15 AM 36.5 °F - 34.7 °F 93% 30.06 in 1.2 mi Calm Calm - N/A Snow Snow
7:35 AM 36.0 °F - 34.5 °F 94% 30.08 in 1.2 mi Calm Calm - N/A Snow Light Snow
7:55 AM 36.5 °F - 34.9 °F 94% 30.10 in 1.0 mi Calm Calm - N/A Snow Snow
8:15 AM 36.5 °F - 34.9 °F 94% 30.08 in 0.5 mi Calm Calm - N/A Snow Snow
8:35 AM 36.5 °F - 35.2 °F 95% 30.07 in 0.8 mi Calm Calm - N/A Snow Light Snow
8:55 AM 36.5 °F - 35.1 °F 95% 30.07 in 1.0 mi Calm Calm - N/A Snow Light Snow
9:15 AM 36.1 °F - 34.9 °F 95% 30.07 in 1.2 mi Calm Calm - N/A Snow Light Snow
9:35 AM 35.6 °F 31.7 °F 34.3 °F 95% 30.06 in 2.0 mi North 4.6 mph - N/A Snow Light Snow
9:55 AM 36.0 °F 32.1 °F 34.7 °F 95% 30.09 in 1.8 mi North 4.6 mph - N/A Snow Light Snow
10:15 AM 35.4 °F 31.5 °F 34.0 °F 94% 30.13 in 1.2 mi North 4.6 mph - N/A Snow Light Snow
10:35 AM 37.0 °F - 35.6 °F 95% 30.13 in 1.2 mi Calm Calm - N/A Snow Light Snow
10:55 AM 37.9 °F - 36.1 °F 93% 30.14 in 1.8 mi Calm Calm - N/A Snow Light Snow
11:15 AM 39.0 °F - 36.7 °F 91% 30.15 in 1.8 mi Calm Calm - N/A   Unknown
11:35 AM 39.7 °F - 37.2 °F 91% 30.15 in 2.0 mi Calm Calm - N/A   Unknown
11:55 AM 42.4 °F - 39.4 °F 89% 30.14 in 2.5 mi Calm Calm - N/A   Unknown
12:15 PM 45.5 °F - 41.2 °F 85% 30.14 in 2.0 mi Calm Calm - 0.05 in   Unknown
12:35 PM 43.3 °F - 38.5 °F 83% 30.13 in 3.0 mi Calm Calm - 0.12 in Rain Light Rain
12:55 PM 44.4 °F - 40.5 °F 86% 30.12 in 4.0 mi Calm Calm - 0.19 in   Unknown
1:15 PM 49.6 °F - 41.0 °F 72% 30.12 in 7.0 mi Calm Calm - 0.05 in   Overcast
1:35 PM 51.3 °F - 37.8 °F 60% 30.12 in 10.0 mi Calm Calm - 0.13 in   Overcast
1:55 PM 50.2 °F - 37.2 °F 61% 30.13 in 10.0 mi Calm Calm - 0.19 in   Overcast
2:15 PM 44.4 °F - 35.1 °F 70% 30.14 in 10.0 mi Calm Calm - 0.03 in   Overcast
2:35 PM 44.1 °F - 36.0 °F 73% 30.14 in 10.0 mi Calm Calm - 0.06 in   Overcast
2:55 PM 40.1 °F 38.0 °F 34.5 °F 80% 30.14 in 10.0 mi ESE 3.5 mph - 0.09 in   Overcast
3:15 PM 39.9 °F 37.8 °F 34.7 °F 82% 30.16 in 10.0 mi East 3.5 mph - 0.02 in   Overcast
3:35 PM 40.1 °F 38.0 °F 35.1 °F 82% 30.16 in 10.0 mi East 3.5 mph - N/A   Overcast
3:55 PM 39.2 °F 35.9 °F 34.9 °F 84% 30.17 in 10.0 mi East 4.6 mph - 0.04 in   Overcast
4:15 PM 39.2 °F 37.0 °F 35.6 °F 87% 30.18 in 10.0 mi East 3.5 mph - 0.01 in   Overcast
4:35 PM 39.0 °F 36.8 °F 35.6 °F 88% 30.19 in 10.0 mi SE 3.5 mph - 0.02 in   Overcast
4:55 PM 39.4 °F - 36.3 °F 89% 30.20 in 10.0 mi Calm Calm - 0.02 in   Overcast
5:15 PM 39.0 °F - 36.0 °F 89% 30.20 in 7.0 mi Calm Calm - N/A   Overcast
5:35 PM 38.5 °F - 35.4 °F 89% 30.20 in 7.0 mi Calm Calm - N/A   Overcast
5:55 PM 38.1 °F - 35.4 °F 90% 30.20 in 7.0 mi Calm Calm - N/A   Overcast
6:15 PM 37.0 °F - 34.5 °F 91% 30.21 in 5.0 mi Calm Calm - N/A   Overcast
6:35 PM 36.9 °F - 34.7 °F 92% 30.23 in 5.0 mi Calm Calm - N/A   Overcast
6:55 PM 36.7 °F - 34.7 °F 93% 30.26 in 5.0 mi Calm Calm - N/A   Overcast
7:15 PM 35.6 °F - 33.6 °F 92% 30.27 in 5.0 mi Calm Calm - N/A   Overcast
7:35 PM 36.1 °F - 34.2 °F 93% 30.27 in 7.0 mi Calm Calm - N/A   Overcast
7:55 PM 35.6 °F - 33.6 °F 92% 30.27 in 4.0 mi Calm Calm - 0.01 in   Overcast
8:15 PM 36.0 °F - 34.0 °F 93% 30.26 in 4.0 mi Calm Calm - N/A   Overcast
8:35 PM 35.6 °F - 33.8 °F 93% 30.27 in 10.0 mi Calm Calm - N/A   Overcast
8:55 PM 36.1 °F - 34.2 °F 93% 30.28 in 7.0 mi Calm Calm - N/A   Overcast
9:15 PM 36.5 °F - 34.2 °F 91% 30.28 in 10.0 mi Calm Calm - N/A   Overcast
9:35 PM 36.9 °F - 33.8 °F 89% 30.28 in 10.0 mi Calm Calm - N/A   Overcast
9:55 PM 37.2 °F - 33.8 °F 87% 30.29 in 10.0 mi Calm Calm - N/A   Overcast
10:15 PM 37.4 °F - 34.0 °F 87% 30.31 in 10.0 mi Calm Calm - N/A   Overcast
10:35 PM 37.4 °F - 33.6 °F 86% 30.31 in 10.0 mi Calm Calm - N/A   Overcast
10:55 PM 37.4 °F 34.9 °F 34.2 °F 88% 30.31 in 7.0 mi SE 3.5 mph - N/A   Overcast
11:15 PM 37.2 °F 34.7 °F 34.5 °F 90% 30.31 in 7.0 mi SE 3.5 mph - N/A   Overcast
11:35 PM 36.7 °F 32.9 °F 34.2 °F 91% 30.31 in 7.0 mi SE 4.6 mph - N/A   Overcast
11:55 PM 36.9 °F - 33.8 °F 89% 30.31 in 10.0 mi Calm Calm - N/A   Overcast